Temperature
25 24 24 23 22 21 21 21 20 20 20 20 20 19 19 20 19 19 19 19 19 19 19 19 19 19 18 18 18 18 18 18 18 18 18 19 19 19 18 18 18 18 18
25 24 24 23 22 21 21 21 20 20 20 20 20 20 20 20 19 19 19 19 19 19 19 19 19 18 18 18 18 18 18 18 18 18 18 18 18 18 19 18 18 18 18
25 24 24 23 23 22 21 21 20 20 20 20 20 20 20 20 19 19 19 19 19 19 19 19 19 18 18 18 18 18 18 18 18 18 19 18 18 18 19 18 18 18 18
26 25 24 23 23 22 21 21 21 20 20 20 20 20 19 19 19 19 19 19 19 19 19 19 18 18 18 18 18 18 18 18 18 18 19 19 19 18 18 18 18 18 18
26 25 24 24 23 22 22 21 21 20 20 20 20 19 19 19 19 19 19 19 19 19 19 19 19 18 18 18 18 18 18 18 18 18 18 18 19 19 18 18 18 18 18
27 26 25 24 23 23 22 21 21 20 20 20 19 19 19 19 19 19 19 19 19 19 19 19 19 18 18 18 18 18 18 18 18 18 18 18 18 18 18 18 18 18 18
27 26 25 24 23 23 22 21 21 20 20 20 19 19 19 19 19 19 19 19 19 19 19 18 18 18 18 18 18 18 18 18 18 18 18 18 18 18 18 18 18 18 18
27 26 25 24 23 23 22 21 20 20 20 20 20 19 19 19 19 19 19 19 19 18 18 18 18 18 18 18 18 18 18 18 18 18 18 18 18 18 18 18 18 18 18
26 26 25 24 23 23 22 21 21 20 20 20 19 19 19 19 19 18 18 18 18 18 18 18 18 18 18 18 18 18 17 18 17 17 17 17 17 18 18 18 18 18 17
26 26 25 24 24 23 22 21 20 20 20 19 19 19 19 19 19 18 18 18 18 18 18 18 18 18 18 18 17 17 17 17 17 17 17 17 17 17 17 17 18 18 17
27 26 25 25 24 23 22 21 20 20 19 19 19 19 19 18 18 18 18 18 18 18 18 17 17 17 18 17 17 17 17 17 17 17 17 17 17 17 17 17 17 17 17
26 26 25 24 24 23 22 21 20 20 19 19 19 19 18 18 18 18 18 18 18 17 17 17 17 17 17 17 17 17 17 17 17 17 17 17 17 17 17 17 17 17 17
26 26 25 24 23 23 22 21 20 20 19 19 19 19 18 18 18 17 17 17 17 17 17 17 17 17 17 17 17 17 17 17 16 16 16 16 16 16 16 16 16 16 17
25 25 24 24 23 22 22 21 20 20 20 19 19 18 18 18 18 17 17 17 17 17 16 16 16 17 17 17 16 16 16 16 16 16 16 16 16 16 16 16 16 16 16
25 25 24 23 22 22 21 21 20 20 19 19 18 18 18 18 17 17 17 17 17 16 16 16 16 16 16 16 16 16 16 16 16 16 16 16 16 16 16 16 16 16 16
25 24 23 23 22 21 21 20 20 19 19 19 18 18 17 17 17 17 17 17 16 16 16 16 16 16 16 16 16 16 16 16 16 16 16 16 16 16 16 16 16 16 16
24 23 23 22 21 21 20 20 19 19 19 18 18 17 17 17 17 17 17 16 16 16 16 16 16 16 16 16 16 15 15 15 15 15 15 15 16 16 16 16 16 15 15
23 23 22 21 21 20 20 19 19 19 18 18 17 17 17 17 17 17 16 16 16 16 16 16 16 16 16 15 15 15 15 15 15 15 15 15 16 16 15 15 15 15 15
22 22 21 21 20 20 19 19 18 18 18 17 17 17 16 16 16 16 16 16 16 16 16 16 16 15 16 15 15 15 15 15 15 15 15 15 15 16 15 15 15 15 15
21 21 21 20 20 19 19 18 18 17 17 17 17 17 16 16 16 16 16 16 16 16 15 15 15 15 16 16 15 15 15 15 15 15 15 15 15 15 15 15 15 15 15
21 20 20 19 19 18 18 18 17 17 17 17 17 16 16 16 16 16 16 16 16 15 15 15 15 15 15 15 15 15 15 15 14 14 14 15 15 15 15 15 15 15 15
20 20 19 19 18 18 18 17 17 17 17 17 17 17 16 16 16 16 16 16 15 15 15 15 15 15 15 15 15 15 15 15 14 14 14 14 14 14 15 15 15 15 14
19 19 18 18 18 17 17 17 17 17 17 16 16 16 16 16 16 16 16 15 15 15 15 15 15 15 15 15 15 14 14 14 14 14 14 14 14 14 14 14 14 14 14
19 18 18 18 17 17 16 16 16 16 16 16 16 16 16 16 16 16 15 15 15 15 15 15 14 14 14 14 14 14 14 14 14 13 13 13 13 14 14 14 14 14 14
18 18 17 17 16 16 16 16 16 16 16 16 16 16 16 16 15 15 15 15 15 15 15 14 14 14 14 14 14 14 14 14 13 13 13 13 13 13 13 13 13 13 13
18 17 17 17 16 16 16 15 15 15 15 15 15 15 15 15 15 15 15 15 14 14 14 14 14 14 14 14 14 13 13 13 13 13 13 13 13 13 13 13 13 13 13
Wind_Speed
9 7 6 6 7 6 5 4 3 2 1 1 0 0 1 1 1 2 2 1 0 0 0 1 0 1 1 0 1 1 1 1 1 1 1 1 2 3 3 3 3 4 4
9 7 6 6 7 6 5 5 3 2 1 1 1 1 0 0 1 1 2 1 0 0 1 1 1 1 1 1 1 1 1 2 1 1 1 1 1 2 4 3 4 4 4
10 9 6 5 6 6 5 4 3 2 1 1 0 1 1 0 0 0 1 1 1 0 1 0 1 2 2 1 2 1 1 2 2 1 1 1 1 1 1 2 2 3 3
9 9 8 6 6 6 6 5 4 3 2 2 1 1 0 1 1 0 1 1 1 0 1 1 1 2 2 1 2 0 1 1 2 1 1 1 1 1 1 1 2 3 3
9 9 8 7 6 6 6 6 5 3 2 1 1 2 2 2 1 1 1 1 0 1 1 1 1 1 1 1 1 1 1 1 2 2 1 1 1 1 2 2 2 2 3
9 9 8 7 6 6 6 7 5 4 2 1 1 2 2 3 3 3 2 1 1 1 1 1 1 1 1 1 1 2 2 2 3 2 2 2 1 1 1 1 2 3 2
9 9 8 8 6 5 6 7 6 4 2 2 1 1 2 2 2 3 2 2 2 1 1 1 1 2 2 2 1 2 2 3 3 3 3 2 2 1 1 0 1 1 1
8 8 8 7 6 5 6 7 6 4 3 2 1 1 1 1 2 2 3 2 2 2 2 2 2 2 3 2 1 2 2 2 3 4 3 3 2 2 2 1 1 1 1
7 7 8 7 7 6 6 6 6 4 3 2 1 1 1 2 2 2 2 2 2 3 3 2 3 2 2 2 2 2 2 1 3 3 3 3 3 2 2 1 1 1 2
6 6 6 7 7 6 6 6 6 4 3 2 1 1 1 1 1 2 2 3 3 3 3 2 3 3 3 2 2 2 2 2 2 2 1 2 3 2 2 2 2 2 2
6 7 7 6 7 7 6 6 6 5 3 2 2 1 1 1 1 1 2 2 2 2 2 2 2 3 3 3 2 3 2 2 2 2 2 3 2 2 2 2 1 1 1
6 6 6 6 6 6 6 5 5 5 4 3 2 1 0 1 1 2 2 2 2 2 2 2 2 3 3 3 3 3 3 2 2 3 3 2 2 2 3 2 2 1 1
5 5 5 5 5 4 4 4 4 4 3 3 2 1 0 1 2 2 2 2 2 2 3 2 2 3 3 2 3 3 3 3 3 3 3 3 3 2 3 3 2 2 2
5 4 5 5 4 3 3 3 2 2 2 2 2 1 1 1 2 2 2 2 2 3 3 3 3 3 3 2 3 3 4 3 3 3 3 3 3 3 4 3 3 2 2
4 4 4 5 4 4 3 2 1 1 1 1 1 1 1 1 2 2 2 2 3 4 3 3 4 4 3 2 2 3 4 4 4 4 3 3 4 4 4 4 2 3 3
2 3 3 4 4 3 3 2 1 1 1 1 0 0 0 1 1 2 2 2 3 3 3 4 4 4 4 3 3 4 5 4 5 4 4 4 4 4 6 6 5 4 4
2 2 2 2 3 3 3 2 1 1 1 1 1 1 1 1 2 3 2 3 3 4 4 4 4 4 3 3 3 4 5 6 5 5 5 6 5 3 4 5 7 7 7
2 2 2 2 2 2 2 2 1 2 2 1 1 2 2 3 2 2 2 3 3 4 4 4 4 4 4 3 4 5 6 6 6 6 6 5 5 5 4 5 5 5 6
3 2 3 3 3 3 3 3 3 3 2 2 2 2 3 3 3 3 3 3 3 4 5 4 4 4 3 3 4 4 5 5 6 6 5 6 4 5 4 5 5 6 6
4 3 3 4 4 4 3 2 2 2 3 3 2 2 3 3 3 3 3 4 4 5 5 4 4 4 4 4 4 4 4 5 5 5 5 5 4 4 4 5 6 7 7
4 4 4 4 4 4 4 4 3 3 4 4 3 3 3 4 3 2 3 4 4 5 5 5 5 4 4 4 5 5 3 5 5 5 5 4 4 5 7 7 7 9 7
4 4 4 4 4 4 4 3 3 4 4 4 4 3 3 5 4 3 3 4 5 5 5 5 5 4 3 2 3 5 7 6 5 5 4 3 2 4 6 6 8 8 6
3 3 3 3 4 3 2 2 3 3 4 4 4 4 4 3 3 3 4 4 4 4 4 4 5 4 3 2 4 5 7 7 5 5 6 6 6 6 6 8 9 6 5
3 2 3 3 3 3 2 2 2 3 4 4 4 4 3 3 3 3 3 3 3 4 4 4 5 4 3 3 3 3 4 5 6 6 7 8 8 7 8 6 4 4 5
2 2 2 2 2 2 2 2 3 3 4 4 4 4 4 3 2 2 2 2 2 2 4 4 4 5 4 4 4 4 4 4 5 5 5 5 4 4 4 4 4 5 5
2 1 1 1 1 2 2 2 2 3 4 5 4 5 4 3 3 2 2 2 2 1 1 2 4 3 4 5 6 6 6 6 5 3 5 5 5 4 4 4 4 4 4
Wind_Direction
142 143 146 139 132 128 127 117 100 93 80 52 23 174 160 191 144 135 109 118 161 50 330 326 295 294 285 306 322 340 282 258 217 234 230 192 195 170 172 184 174 185 176
146 149 156 151 144 139 134 128 118 90 82 115 226 242 224 206 141 84 125 140 109 333 279 314 309 307 318 300 282 272 260 272 249 238 243 175 229 228 187 171 183 190 182
152 157 161 155 147 142 137 131 123 114 93 350 306 296 148 246 63 133 144 144 117 93 316 329 323 317 296 259 245 228 238 257 272 247 189 169 210 244 183 193 192 185 185
158 162 160 154 145 137 132 122 117 105 71 37 6 330 67 33 48 24 72 80 114 229 260 264 260 294 305 299 286 212 260 250 275 262 247 226 169 193 196 212 204 206 194
162 159 152 147 146 143 138 127 115 108 92 55 10 339 350 356 12 17 41 24 300 244 270 270 272 285 293 294 294 311 284 269 271 286 281 278 241 225 199 207 204 214 206
157 151 145 145 150 147 141 132 124 115 110 91 41 10 350 356 351 344 347 327 298 272 272 262 276 280 272 276 263 259 250 255 263 274 278 276 287 284 256 226 208 200 207
152 152 150 148 151 144 134 128 127 131 134 126 82 38 349 339 340 331 331 324 330 332 349 342 321 303 286 265 260 249 250 249 254 256 263 279 273 263 274 249 237 196 196
147 148 147 149 150 145 134 127 130 138 140 127 94 64 2 344 347 348 340 344 336 341 3 352 328 319 312 303 301 278 263 258 257 258 255 268 272 277 270 245 242 259 238
149 150 152 157 155 145 134 130 128 131 137 132 123 100 42 8 348 347 336 335 344 345 358 353 345 330 316 320 307 289 280 278 262 260 250 255 260 260 277 276 240 245 261
148 150 157 156 147 144 134 129 130 139 143 137 172 109 69 9 340 346 356 355 351 347 338 344 345 339 321 302 288 287 288 277 282 264 265 274 279 270 266 253 243 243 253
157 151 155 148 143 143 140 140 139 146 147 139 122 78 79 4 336 338 348 344 338 338 328 339 337 327 319 321 312 301 312 294 294 293 262 256 279 291 290 287 262 252 243
141 141 143 139 144 144 145 146 146 155 159 155 140 136 102 28 339 341 334 336 333 324 318 327 322 312 320 323 321 311 312 298 282 277 270 260 256 266 284 288 280 277 255
128 132 133 132 132 133 128 138 152 160 161 155 157 136 55 356 334 325 318 324 316 307 302 294 286 293 297 300 302 302 302 293 280 269 261 254 244 246 260 264 270 263 260
114 115 128 125 120 114 112 126 157 155 145 141 156 154 197 281 297 300 307 311 302 291 293 291 281 275 276 285 291 294 292 293 287 274 262 254 241 245 252 248 249 255 260
121 108 110 121 122 123 126 123 137 103 108 138 177 182 212 259 294 306 307 313 309 302 299 295 289 283 272 287 310 300 291 290 289 284 269 253 236 236 244 251 252 257 258
99 100 102 116 125 133 137 144 175 134 97 71 5 152 236 269 295 296 304 312 306 300 292 292 297 294 295 318 322 308 296 286 282 281 278 263 235 228 231 243 256 252 248
113 82 91 88 112 115 111 99 83 71 79 61 12 11 319 302 300 304 319 312 307 303 294 289 288 288 289 292 292 294 290 279 274 274 271 273 269 245 243 243 247 250 247
77 78 81 76 100 102 90 60 57 64 49 12 349 360 329 302 292 293 292 291 292 290 285 282 285 282 279 274 270 279 273 280 274 271 266 264 263 263 261 264 257 253 254
76 66 78 74 62 73 74 70 38 32 26 12 352 331 298 293 296 298 296 288 285 284 281 283 282 283 277 252 260 269 274 278 280 274 273 271 259 258 251 260 266 265 262
79 66 78 75 69 54 44 56 39 4 352 336 315 300 290 290 293 298 294 292 284 284 286 284 279 276 273 243 245 257 274 281 282 272 264 256 250 244 241 251 263 266 267
75 68 70 70 71 62 55 42 19 358 353 342 334 323 312 293 281 284 286 289 285 286 285 287 282 267 256 235 230 235 262 286 288 283 274 266 256 252 248 246 254 257 266
81 70 72 72 78 72 62 46 13 356 349 337 327 318 303 295 300 293 282 281 282 280 281 283 287 284 269 247 247 245 252 277 289 290 291 283 257 269 266 259 262 268 276
81 75 71 72 80 75 57 35 6 346 337 335 325 313 301 286 291 291 288 287 291 295 297 295 294 295 308 305 285 270 267 269 276 290 295 291 272 270 269 259 260 262 260
83 78 75 59 55 66 53 30 3 341 334 326 317 309 300 294 304 294 304 312 313 309 305 305 306 311 318 328 322 302 288 281 283 291 290 277 259 258 269 277 261 247 250
88 71 66 58 33 29 35 12 4 344 328 314 306 301 297 297 293 292 315 309 317 307 296 314 314 313 314 312 300 289 287 290 292 300 292 289 283 269 263 265 263 251 243
110 104 82 51 14 6 2 356 346 337 321 310 309 308 302 295 292 293 308 330 313 312 315 307 309 319 310 301 306 308 304 298 295 296 288 292 294 293 291 292 288 276 270
Height
1521 1523 1524 1525 1525 1525 1525 1525 1524 1524 1525 1525 1525 1525 1525 1525 1525 1524 1524 1523 1523 1523 1523 1522 1522 1522 1521 1521 1521 1521 1521 1521 1522 1523 1523 1523 1524 1524 1524 1524 1525 1526 1526
1520 1522 1524 1525 1525 1525 1525 1525 1525 1525 1525 1525 1525 1525 1525 1525 1525 1525 1524 1524 1523 1523 1523 1522 1522 1521 1521 1520 1520 1520 1520 1520 1521 1522 1522 1522 1524 1523 1524 1524 1524 1525 1525
1518 1521 1523 1524 1525 1525 1525 1525 1525 1525 1525 1525 1525 1525 1525 1525 1525 1525 1524 1524 1523 1522 1522 1521 1521 1520 1520 1519 1519 1519 1519 1519 1520 1520 1521 1521 1522 1522 1522 1522 1523 1523 1524
1517 1519 1521 1523 1524 1524 1524 1524 1525 1524 1524 1525 1525 1525 1525 1525 1525 1525 1524 1523 1523 1522 1521 1521 1520 1520 1519 1519 1519 1519 1518 1518 1518 1519 1520 1521 1520 1520 1520 1521 1521 1522 1522
1515 1518 1520 1522 1523 1524 1524 1524 1524 1524 1524 1524 1525 1525 1524 1525 1525 1524 1524 1523 1522 1521 1521 1520 1519 1519 1518 1518 1518 1518 1517 1517 1517 1518 1518 1519 1519 1519 1519 1519 1520 1520 1520
1513 1516 1518 1520 1522 1523 1524 1524 1524 1524 1524 1524 1524 1524 1524 1524 1524 1523 1523 1522 1521 1521 1520 1519 1519 1518 1518 1517 1517 1517 1516 1516 1516 1516 1517 1517 1517 1517 1518 1518 1518 1518 1519
1511 1514 1517 1519 1521 1522 1523 1523 1523 1523 1524 1524 1524 1523 1523 1523 1523 1522 1522 1521 1521 1520 1519 1518 1518 1517 1517 1516 1516 1515 1515 1515 1515 1515 1515 1515 1516 1516 1517 1516 1516 1516 1517
1509 1512 1515 1517 1519 1521 1522 1523 1523 1523 1523 1523 1523 1523 1523 1522 1522 1521 1521 1520 1520 1519 1518 1517 1517 1516 1515 1515 1514 1514 1514 1513 1513 1513 1513 1513 1514 1515 1515 1515 1515 1515 1515
1508 1511 1514 1516 1519 1520 1522 1522 1522 1523 1523 1523 1523 1523 1522 1521 1521 1521 1520 1519 1519 1518 1517 1516 1515 1514 1514 1513 1513 1512 1512 1512 1511 1511 1511 1511 1512 1513 1513 1513 1513 1514 1513
1508 1510 1513 1515 1517 1519 1520 1521 1521 1522 1522 1522 1522 1522 1521 1521 1520 1520 1519 1518 1517 1516 1516 1515 1514 1513 1512 1512 1511 1511 1511 1510 1510 1509 1509 1509 1510 1510 1511 1511 1511 1512 1512
1505 1509 1512 1514 1516 1518 1519 1520 1521 1521 1521 1521 1521 1521 1520 1520 1519 1519 1518 1517 1516 1515 1514 1513 1512 1511 1511 1510 1510 1509 1509 1508 1508 1508 1508 1508 1508 1508 1508 1509 1509 1509 1510
1505 1508 1510 1512 1515 1517 1518 1519 1520 1521 1520 1520 1520 1520 1520 1519 1518 1517 1516 1516 1514 1513 1513 1512 1511 1510 1509 1508 1508 1507 1507 1506 1506 1506 1505 1505 1505 1505 1505 1506 1506 1506 1507
1504 1507 1510 1512 1514 1516 1518 1519 1520 1520 1520 1519 1519 1518 1518 1517 1517 1516 1515 1514 1513 1512 1511 1510 1509 1508 1507 1507 1506 1506 1505 1504 1504 1503 1503 1503 1503 1502 1502 1503 1503 1504 1504
1505 1507 1509 1511 1514 1515 1517 1518 1519 1519 1519 1518 1517 1517 1516 1516 1515 1514 1513 1512 1511 1510 1509 1508 1507 1507 1506 1505 1504 1503 1503 1502 1502 1501 1501 1500 1500 1500 1500 1500 1500 1501 1501
1506 1508 1509 1511 1513 1514 1515 1516 1517 1517 1516 1516 1516 1515 1515 1514 1513 1513 1512 1510 1509 1509 1507 1506 1505 1505 1504 1503 1502 1501 1500 1499 1499 1499 1498 1498 1498 1498 1498 1498 1497 1498 1498
1506 1508 1509 1511 1512 1513 1514 1514 1515 1514 1514 1514 1514 1513 1513 1512 1511 1511 1510 1509 1508 1506 1505 1504 1503 1502 1502 1501 1500 1499 1498 1497 1496 1495 1495 1495 1495 1494 1494 1494 1494 1495 1495
1506 1508 1509 1510 1511 1512 1512 1513 1513 1513 1513 1513 1512 1512 1511 1511 1509 1509 1508 1507 1505 1504 1503 1502 1501 1500 1499 1498 1497 1496 1495 1494 1493 1492 1492 1492 1492 1491 1491 1491 1491 1490 1490
1506 1507 1508 1509 1510 1511 1511 1512 1512 1512 1512 1511 1510 1509 1509 1508 1507 1506 1505 1504 1503 1502 1501 1499 1498 1497 1496 1495 1494 1493 1492 1491 1490 1489 1489 1488 1487 1487 1487 1486 1486 1486 1485
1506 1507 1508 1508 1509 1510 1510 1510 1511 1510 1510 1509 1508 1508 1507 1506 1505 1504 1503 1502 1500 1499 1498 1497 1495 1494 1493 1492 1491 1490 1488 1487 1486 1486 1485 1484 1484 1483 1483 1482 1481 1481 1481
1506 1507 1507 1508 1508 1508 1509 1509 1509 1509 1508 1508 1507 1506 1505 1504 1503 1502 1501 1499 1498 1497 1496 1494 1493 1492 1490 1489 1488 1487 1485 1484 1483 1482 1481 1481 1480 1479 1479 1478 1477 1476 1476
1506 1507 1507 1507 1507 1508 1508 1508 1508 1507 1506 1506 1505 1504 1503 1502 1501 1500 1499 1497 1496 1495 1493 1492 1490 1489 1487 1486 1485 1484 1482 1481 1479 1478 1477 1477 1476 1475 1474 1474 1473 1472 1472
1506 1507 1507 1506 1507 1507 1507 1506 1506 1506 1505 1504 1503 1502 1501 1500 1499 1497 1496 1495 1494 1492 1491 1489 1487 1486 1484 1482 1481 1480 1479 1478 1476 1475 1473 1473 1472 1471 1470 1469 1469 1468 1468
1505 1506 1506 1506 1506 1506 1506 1505 1505 1504 1503 1502 1500 1499 1498 1497 1496 1495 1494 1493 1491 1490 1488 1486 1485 1483 1481 1479 1478 1477 1476 1474 1473 1471 1470 1469 1468 1467 1466 1465 1465 1464 1463
1505 1506 1506 1505 1505 1505 1505 1504 1504 1503 1501 1500 1498 1497 1496 1495 1494 1493 1492 1490 1489 1487 1485 1484 1482 1480 1477 1476 1474 1473 1472 1470 1469 1467 1466 1465 1464 1463 1462 1461 1460 1459 1459
1504 1505 1505 1505 1505 1504 1504 1503 1502 1501 1499 1498 1497 1496 1495 1494 1492 1491 1490 1488 1487 1485 1483 1481 1480 1477 1475 1473 1472 1470 1468 1467 1465 1464 1463 1462 1461 1460 1458 1457 1456 1455 1455
1503 1504 1504 1504 1503 1503 1502 1502 1500 1499 1498 1496 1495 1494 1493 1491 1490 1489 1487 1485 1484 1482 1481 1479 1477 1474 1473 1470 1468 1467 1465 1463 1462 1461 1459 1458 1458 1457 1455 1454 1453 1452 1451